Weather History for Alma, GA

Change the Weather History Date:

Wednesday, February 26, 2014

  Actual Average Record
Temperature  
Mean Temperature 50 °F 56 °F  
Max Temperature 55 °F 68 °F 82 °F (1971)
Min Temperature 45 °F 45 °F 19 °F (1967)
Degree Days  
Heating Degree Days 15 9  
Month to date heating degree days 264 293  
Since 1 July heating degree days 1428 1382  
Cooling Degree Days 0 1  
Month to date cooling degree days 7 2  
Year to date cooling degree days 8 7  
Moisture  
Dew Point 47 °F    
Average Humidity 85    
Maximum Humidity 93    
Minimum Humidity 76    
Precipitation  
Precipitation 0.30 in 0.14 in 1.14 in (2013)
Month to date precipitation 1.91 3.53  
Year to date precipitation 3.52 7.79  
Snow  
Snow 0.00 in 0.00 in 0.00 in ()
Month to date snowfall 0.0 0.0  
Since 1 July snowfall T 0.1  
Snow Depth 0.00 in    
Sea Level Pressure  
Sea Level Pressure 29.86 in    
Wind  
Wind Speed 5 mph (NNW)    
Max Wind Speed 15 mph    
Max Gust Speed 19 mph    
Visibility 6 miles    
Events Rain    
T = Trace of Precipitation, MM = Missing Value Source: NWS Daily Summary

Daily Weather History Graph

Daily Weather History Graph

Search for Another Location

Airport:

Trip Planner

Search our weather history database for the weather conditions in past years. The results will help you decide how hot, cold, wet, or windy it might be!

Date:

Astronomy

Feb. 26, 2014 Rise Set
Actual Time 7:00 AM EST 6:25 PM EST
Civil Twilight 6:35 AM EST 6:50 PM EST
Nautical Twilight 6:07 AM EST 7:18 PM EST
Astronomical Twilight 5:39 AM EST 7:46 PM EST
Moon 4:37 AM EST (2/26) 3:46 PM EST (2/26)
Length of Visible Light 12h 14m
Length of Day
11h 25m
Waning Crescent, 10% of the Moon is Illuminated
Feb 26
Waning Crescent
Mar 1
New
Mar 8
First Quarter
Mar 16
Full
Mar 23
Last Quarter

Hourly Weather History & Observations

Time (EST) Temp. Windchill Dew Point Humidity Pressure Visibility Wind Dir Wind Speed Gust Speed Precip Events Conditions
12:53 AM 53.1 °F - 48.0 °F 83% 29.93 in 10.0 mi Calm Calm - N/A   Clear
1:53 AM 52.0 °F - 48.0 °F 86% 29.91 in 9.0 mi Calm Calm - N/A   Clear
2:53 AM 52.0 °F - 48.0 °F 86% 29.89 in 9.0 mi Calm Calm - N/A   Clear
3:53 AM 53.1 °F - 48.9 °F 86% 29.87 in 8.0 mi Calm Calm - N/A   Scattered Clouds
4:53 AM 53.1 °F - 48.0 °F 83% 29.84 in 8.0 mi Calm Calm - N/A   Clear
5:53 AM 53.1 °F - 48.9 °F 86% 29.82 in 7.0 mi Calm Calm - N/A   Overcast
6:53 AM 54.0 °F - 51.1 °F 90% 29.84 in 6.0 mi Calm Calm - 0.00 in Rain Light Rain
7:46 AM 55.0 °F - 51.1 °F 86% 29.88 in 2.0 mi WNW 9.2 mph - 0.05 in Rain Light Rain
7:53 AM 54.0 °F - 51.1 °F 90% 29.89 in 2.5 mi WNW 6.9 mph - 0.06 in Rain Light Rain
8:06 AM 55.0 °F - 51.1 °F 86% 29.89 in 2.0 mi NW 8.1 mph - 0.02 in Rain Rain
8:13 AM 55.0 °F - 51.1 °F 86% 29.89 in 1.8 mi NW 5.8 mph - 0.03 in Rain Rain
8:33 AM 54.0 °F - 51.1 °F 90% 29.89 in 1.8 mi North 4.6 mph - 0.06 in Rain Rain
8:53 AM 54.0 °F - 51.1 °F 90% 29.88 in 2.0 mi Variable 3.5 mph - 0.08 in Rain Light Rain
9:02 AM 54.0 °F - 51.1 °F 90% 29.88 in 1.5 mi North 4.6 mph - 0.02 in Rain Rain
9:10 AM 54.0 °F - 51.1 °F 90% 29.88 in 1.5 mi North 3.5 mph - 0.03 in Rain Rain
9:26 AM 54.0 °F - 50.0 °F 86% 29.89 in 2.5 mi NNW 4.6 mph - 0.04 in Rain Light Rain
9:53 AM 54.0 °F - 50.0 °F 86% 29.89 in 2.0 mi North 4.6 mph - 0.05 in Rain Light Rain
10:04 AM 54.0 °F - 50.0 °F 86% 29.89 in 2.0 mi North 3.5 mph - 0.00 in Rain Light Rain
10:53 AM 53.1 °F - 50.0 °F 89% 29.90 in 2.0 mi NNW 6.9 mph - 0.04 in Rain Light Rain
11:23 AM 53.1 °F - 50.0 °F 89% 29.89 in 3.0 mi North 5.8 mph - 0.02 in Rain Light Rain
11:36 AM 53.1 °F - 48.9 °F 86% 29.89 in 3.0 mi North 6.9 mph - 0.03 in Rain Light Rain
11:50 AM 53.6 °F - 48.2 °F 82% 29.90 in 5.0 mi North 11.5 mph - 0.03 in Rain Light Rain
11:53 AM 52.0 °F - 48.0 °F 86% 29.89 in 6.0 mi NNW 9.2 mph - 0.03 in Rain Light Rain
12:08 PM 51.1 °F - 48.0 °F 89% 29.89 in 5.0 mi North 11.5 mph - 0.00 in Rain Light Rain
12:32 PM 51.1 °F - 46.9 °F 86% 29.88 in 5.0 mi North 4.6 mph - 0.01 in Rain Light Rain
12:53 PM 51.1 °F - 48.0 °F 89% 29.85 in 4.0 mi Calm Calm - 0.02 in Rain Light Rain
1:08 PM 51.1 °F - 46.9 °F 86% 29.84 in 4.0 mi NNW 5.8 mph - 0.01 in Rain Light Rain
1:53 PM 51.1 °F - 46.9 °F 86% 29.81 in 8.0 mi NNW 5.8 mph - 0.02 in Rain Light Rain
2:53 PM 50.0 °F - 46.0 °F 86% 29.80 in 8.0 mi NNW 10.4 mph - 0.00 in   Overcast
3:40 PM 50.0 °F - 46.0 °F 86% 29.79 in 7.0 mi NNW 8.1 mph - N/A   Overcast
3:53 PM 50.0 °F - 46.0 °F 86% 29.78 in 8.0 mi NW 5.8 mph - N/A   Overcast
4:53 PM 48.0 °F - 44.1 °F 86% 29.80 in 7.0 mi NNW 10.4 mph - N/A   Overcast
5:36 PM 48.0 °F - 45.0 °F 89% 29.78 in 7.0 mi NW 4.6 mph - N/A   Overcast
5:53 PM 48.0 °F - 44.1 °F 86% 29.80 in 7.0 mi NW 8.1 mph - N/A   Overcast
6:53 PM 48.0 °F - 43.0 °F 83% 29.83 in 10.0 mi NNW 13.8 mph - N/A   Overcast
7:19 PM 46.9 °F - 42.1 °F 83% 29.84 in 10.0 mi NNW 11.5 mph - N/A   Overcast
7:53 PM 46.9 °F - 41.0 °F 80% 29.84 in 10.0 mi NNW 10.4 mph - N/A   Overcast
8:53 PM 45.0 °F 40.1 °F 39.9 °F 82% 29.87 in 8.0 mi NNW 9.2 mph - N/A   Overcast
9:00 PM 45.0 °F 40.1 °F 39.9 °F 82% 29.87 in 9.0 mi NNW 9.2 mph - N/A   Overcast
9:25 PM 45.0 °F 39.7 °F 39.0 °F 80% 29.88 in 10.0 mi NNW 10.4 mph - N/A   Overcast
9:53 PM 45.0 °F 41.2 °F 37.9 °F 76% 29.88 in 10.0 mi NW 6.9 mph - N/A   Overcast
10:53 PM 45.0 °F 41.8 °F 37.9 °F 76% 29.89 in 10.0 mi NW 5.8 mph - N/A   Overcast
11:53 PM 45.0 °F 40.1 °F 36.0 °F 71% 29.88 in 10.0 mi NW 9.2 mph - N/A   Overcast